| time (UTC) | temp C | wind direction | speed KPH | gust KPH | rain 1hr cm | rain 24hr cm | rain mn cm | humidity % | barometer mb |
| 20260510183048 | 32 | 295 | 0.0 | 14.5 | 0.00 | 0.00 | 0.00 | 14 | 1012.1 |
| 20260510181543 | 32 | 306 | 0.0 | 0.0 | 0.00 | 0.00 | 0.00 | 14 | 1012.1 |
| 20260510180039 | 32 | 324 | 0.0 | 12.9 | 0.00 | 0.00 | 0.00 | 13 | 1012.1 |
| 20260510174543 | 32 | 232 | 0.0 | 8.0 | 0.00 | 0.00 | 0.00 | 13 | 1012.0 |
| 20260510173039 | 32 | 327 | 0.0 | 12.9 | 0.00 | 0.00 | 0.00 | 12 | 1012.0 |
| 20260510171534 | 31 | 304 | 0.0 | 1.6 | 0.00 | 0.00 | 0.00 | 15 | 1011.7 |
| 20260510170029 | 30 | 302 | 0.0 | 0.0 | 0.00 | 0.00 | 0.00 | 17 | 1011.8 |
| 20260510164525 | 29 | 304 | 0.0 | 1.6 | 0.00 | 0.00 | 0.00 | 17 | 1011.8 |
| 20260510163021 | 27 | 274 | 0.0 | 0.0 | 0.00 | 0.00 | 0.00 | 19 | 1011.7 |
| 20260510161516 | 25 | 228 | 0.0 | 0.0 | 0.00 | 0.00 | 0.00 | 21 | 1011.5 |
| 20260510160013 | 22 | 123 | 0.0 | 0.0 | 0.00 | 0.00 | 0.00 | 28 | 1011.5 |
| 20260510154507 | 20 | 123 | 0.0 | 0.0 | 0.00 | 0.00 | 0.00 | 35 | 1011.5 |
| 20260510153102 | 17 | 123 | 0.0 | 0.0 | 0.00 | 0.00 | 0.00 | 41 | 1011.4 |
| 20260510151602 | 15 | 123 | 0.0 | 0.0 | 0.00 | 0.00 | 0.00 | 42 | 1011.3 |
| 20260510150055 | 14 | 123 | 0.0 | 0.0 | 0.00 | 0.00 | 0.00 | 39 | 1011.2 |
| 20260510144552 | 13 | 119 | 0.0 | 0.0 | 0.00 | 0.00 | 0.00 | 41 | 1011.2 |
| 20260510143046 | 12 | 120 | 0.0 | 0.0 | 0.00 | 0.00 | 0.00 | 37 | 1011.3 |
| 20260510141554 | 12 | 119 | 0.0 | 0.0 | 0.00 | 0.00 | 0.00 | 38 | 1011.1 |
| 20260510140040 | 11 | 119 | 0.0 | 0.0 | 0.00 | 0.00 | 0.00 | 37 | 1011.3 |
| 20260510134538 | 11 | 116 | 0.0 | 0.0 | 0.00 | 0.00 | 0.00 | 30 | 1011.1 |
| 20260510133040 | 10 | 115 | 0.0 | 0.0 | 0.00 | 0.00 | 0.00 | 27 | 1010.9 |
| 20260510131534 | 10 | 115 | 0.0 | 0.0 | 0.00 | 0.00 | 0.00 | 29 | 1010.8 |
| 20260510130034 | 10 | 115 | 0.0 | 0.0 | 0.00 | 0.00 | 0.00 | 31 | 1010.8 |
| 20260510124534 | 10 | 115 | 0.0 | 0.0 | 0.00 | 0.00 | 0.00 | 29 | 1010.7 |
| 20260510123032 | 10 | 114 | 0.0 | 0.0 | 0.00 | 0.00 | 0.00 | 29 | 1010.6 |
| 20260510121531 | 10 | 114 | 0.0 | 0.0 | 0.00 | 0.00 | 0.00 | 30 | 1010.7 |
| 20260510120031 | 11 | 114 | 0.0 | 0.0 | 0.00 | 0.00 | 0.00 | 28 | 1010.7 |
| 20260510114528 | 11 | 114 | 0.0 | 0.0 | 0.00 | 0.00 | 0.00 | 26 | 1010.7 |
| 20260510113026 | 11 | 114 | 0.0 | 0.0 | 0.00 | 0.00 | 0.00 | 28 | 1010.8 |
| 20260510111525 | 11 | 114 | 0.0 | 0.0 | 0.00 | 0.00 | 0.00 | 22 | 1011.0 |
| 20260510110027 | 11 | 125 | 0.0 | 0.0 | 0.00 | 0.00 | 0.00 | 29 | 1011.1 |
| 20260510104521 | 11 | 123 | 0.0 | 0.0 | 0.00 | 0.00 | 0.00 | 25 | 1011.0 |
| 20260510103019 | 11 | 124 | 0.0 | 0.0 | 0.00 | 0.00 | 0.00 | 24 | 1011.1 |
| 20260510101517 | 11 | 123 | 0.0 | 0.0 | 0.00 | 0.00 | 0.00 | 24 | 1011.2 |
| 20260510100016 | 11 | 111 | 0.0 | 0.0 | 0.00 | 0.00 | 0.00 | 25 | 1011.3 |
| 20260510094515 | 11 | 111 | 0.0 | 0.0 | 0.00 | 0.00 | 0.00 | 28 | 1011.4 |
| 20260510093013 | 10 | 110 | 0.0 | 0.0 | 0.00 | 0.00 | 0.00 | 24 | 1011.4 |
| 20260510091513 | 10 | 113 | 0.0 | 1.6 | 0.00 | 0.00 | 0.00 | 26 | 1011.3 |
| 20260510090010 | 10 | 116 | 0.0 | 0.0 | 0.00 | 0.00 | 0.00 | 27 | 1011.4 |
| 20260510084508 | 10 | 117 | 0.0 | 0.0 | 0.00 | 0.00 | 0.00 | 31 | 1011.4 |
| 20260510083005 | 10 | 121 | 0.0 | 0.0 | 0.00 | 0.00 | 0.00 | 30 | 1011.6 |
| 20260510081507 | 10 | 116 | 0.0 | 0.0 | 0.00 | 0.00 | 0.00 | 29 | 1011.7 |
| 20260510080002 | 10 | 115 | 0.0 | 0.0 | 0.00 | 0.00 | 0.00 | 32 | 1011.7 |
| 20260510074601 | 10 | 107 | 0.0 | 0.0 | 0.00 | 0.00 | 0.00 | 34 | 1011.8 |
| 20260510073113 | 10 | 107 | 0.0 | 0.0 | 0.00 | 0.00 | 0.00 | 38 | 1011.8 |
| 20260510071604 | 10 | 105 | 0.0 | 0.0 | 0.00 | 0.00 | 0.00 | 44 | 1011.9 |
| 20260510070051 | 10 | 105 | 0.0 | 0.0 | 0.00 | 0.00 | 0.00 | 40 | 1011.9 |
| 20260510064559 | 10 | 111 | 0.0 | 0.0 | 0.00 | 0.00 | 0.00 | 46 | 1011.8 |
| 20260510063050 | 10 | 118 | 0.0 | 0.0 | 0.00 | 0.00 | 0.00 | 46 | 1011.8 |
| 20260510061551 | 10 | 121 | 0.0 | 0.0 | 0.00 | 0.00 | 0.00 | 49 | 1011.8 |
| 20260510060049 | 11 | 132 | 0.0 | 0.0 | 0.00 | 0.00 | 0.00 | 56 | 1011.6 |
| 20260510054548 | 11 | 132 | 0.0 | 0.0 | 0.00 | 0.00 | 0.00 | 58 | 1011.7 |
| 20260510053049 | 12 | 132 | 0.0 | 0.0 | 0.00 | 0.00 | 0.00 | 61 | 1011.8 |
| 20260510051550 | 12 | 132 | 0.0 | 0.0 | 0.00 | 0.00 | 0.00 | 63 | 1011.8 |
| 20260510050047 | 12 | 132 | 0.0 | 0.0 | 0.00 | 0.00 | 0.00 | 65 | 1011.7 |
| 20260510044550 | 13 | 137 | 0.0 | 0.0 | 0.00 | 0.00 | 0.00 | 67 | 1011.7 |
| 20260510043053 | 13 | 109 | 0.0 | 0.0 | 0.00 | 0.00 | 0.00 | 68 | 1011.8 |
| 20260510041549 | 13 | 302 | 0.0 | 0.0 | 0.00 | 0.00 | 0.00 | 66 | 1011.4 |
| 20260510040050 | 14 | 301 | 0.0 | 0.0 | 0.00 | 0.00 | 0.00 | 64 | 1011.3 |
| 20260510034547 | 15 | 301 | 0.0 | 0.0 | 0.00 | 0.00 | 0.00 | 61 | 1011.3 |
| 20260510033046 | 16 | 301 | 0.0 | 0.0 | 0.00 | 0.00 | 0.00 | 58 | 1011.0 |
| 20260510031553 | 17 | 301 | 0.0 | 0.0 | 0.00 | 0.00 | 0.00 | 56 | 1010.9 |
| 20260510030044 | 18 | 301 | 0.0 | 0.0 | 0.00 | 0.00 | 0.00 | 54 | 1010.7 |
| 20260510024544 | 19 | 301 | 0.0 | 0.0 | 0.00 | 0.00 | 0.00 | 53 | 1010.5 |
| 20260510023043 | 20 | 301 | 0.0 | 0.0 | 0.00 | 0.00 | 0.00 | 52 | 1010.6 |
| 20260510021543 | 20 | 301 | 0.0 | 0.0 | 0.00 | 0.00 | 0.00 | 51 | 1010.5 |
| 20260510020042 | 21 | 301 | 0.0 | 0.0 | 0.00 | 0.00 | 0.00 | 49 | 1010.5 |
| 20260510014542 | 21 | 304 | 0.0 | 0.0 | 0.00 | 0.00 | 0.00 | 48 | 1010.5 |
| 20260510013041 | 22 | 306 | 0.0 | 0.0 | 0.00 | 0.00 | 0.00 | 46 | 1010.4 |
| 20260510011541 | 22 | 327 | 0.0 | 0.0 | 0.00 | 0.00 | 0.00 | 45 | 1010.4 |
| 20260510010040 | 23 | 320 | 0.0 | 3.2 | 0.00 | 0.00 | 0.00 | 43 | 1010.4 |
| 20260510004541 | 24 | 263 | 0.0 | 1.6 | 0.00 | 0.00 | 0.00 | 42 | 1010.4 |
| 20260510003041 | 24 | 262 | 0.0 | 0.0 | 0.00 | 0.00 | 0.00 | 40 | 1010.4 |
| 20260510001539 | 25 | 279 | 0.0 | 0.0 | 0.00 | 0.00 | 0.00 | 40 | 1010.4 |
| 20260510000037 | 25 | 302 | 0.0 | 4.8 | 0.00 | 0.00 | 0.00 | 39 | 1010.4 |
| 20260509234538 | 25 | 217 | 0.0 | 0.0 | 0.00 | 0.00 | 0.00 | 37 | 1010.4 |
| 20260509233036 | 26 | 272 | 0.0 | 8.0 | 0.00 | 0.00 | 0.00 | 38 | 1010.5 |
| 20260509231535 | 26 | 331 | 0.0 | 3.2 | 0.00 | 0.00 | 0.00 | 37 | 1010.6 |
| 20260509230033 | 26 | 312 | 0.0 | 8.0 | 0.00 | 0.00 | 0.00 | 35 | 1010.5 |
| 20260509224535 | 27 | 304 | 0.0 | 0.0 | 0.00 | 0.00 | 0.00 | 35 | 1010.8 |
| 20260509223031 | 28 | 298 | 0.0 | 3.2 | 0.00 | 0.00 | 0.00 | 34 | 1010.8 |
| 20260509221529 | 28 | 311 | 0.0 | 14.5 | 0.00 | 0.00 | 0.00 | 29 | 1010.9 |
| 20260509220028 | 29 | 308 | 0.0 | 17.7 | 0.00 | 0.00 | 0.00 | 30 | 1011.0 |
| 20260509214524 | 30 | 335 | 0.0 | 19.3 | 0.00 | 0.00 | 0.00 | 29 | 1011.2 |
| 20260509213023 | 30 | 285 | 0.0 | 14.5 | 0.00 | 0.00 | 0.00 | 27 | 1011.3 |
| 20260509211521 | 30 | 296 | 0.0 | 17.7 | 0.00 | 0.00 | 0.00 | 27 | 1011.4 |
| 20260509210028 | 30 | 213 | 0.0 | 12.9 | 0.00 | 0.00 | 0.00 | 25 | 1011.4 |
| 20260509204516 | 30 | 313 | 0.0 | 16.1 | 0.00 | 0.00 | 0.00 | 21 | 1011.7 |
| 20260509203017 | 30 | 306 | 0.0 | 3.2 | 0.00 | 0.00 | 0.00 | 21 | 1011.9 |
| 20260509201513 | 30 | 298 | 0.0 | 16.1 | 0.00 | 0.00 | 0.00 | 21 | 1011.9 |
| 20260509200011 | 30 | 309 | 0.0 | 11.3 | 0.00 | 0.00 | 0.00 | 18 | 1012.0 |
| 20260509194509 | 30 | 307 | 0.0 | 9.7 | 0.00 | 0.00 | 0.00 | 18 | 1012.1 |
| 20260509193012 | 30 | 327 | 0.0 | 1.6 | 0.00 | 0.00 | 0.00 | 17 | 1012.1 |
| 20260509191508 | 30 | 310 | 0.0 | 6.4 | 0.00 | 0.00 | 0.00 | 18 | 1012.3 |
| 20260509190110 | 30 | 313 | 0.0 | 12.9 | 0.00 | 0.00 | 0.00 | 19 | 1012.3 |
| 20260509184505 | 30 | 302 | 0.0 | 12.9 | 0.00 | 0.00 | 0.00 | 19 | 1012.3 |